QFA490 YMML-YSSY

Flight info

Callsign QFA490
Flight time N/A
Altitude 35000
Route DOSEL2/34 DOSEL Y59 RIVET
Aircraft A20N/M-SDE2E3FGHIRWXY/LB1

Departure

Time 2026-05-04 12:07
Airport Melbourne Airport (YMML)

Arrival

Time N/A
Airport Sydney Kingsford Smith International Airport (YSSY)
Time Latitude Longitude Altitude Speed Heading
2026-05-04 11:19 -37.66775 144.84717 400 ft 0 kts 249°
2026-05-04 11:35 -37.66770 144.84734 399 ft 3 kts 249°
2026-05-04 11:35 -37.66763 144.84755 396 ft 3 kts 249°
2026-05-04 11:35 -37.66757 144.84775 401 ft 3 kts 242°
2026-05-04 11:35 -37.66751 144.84797 399 ft 3 kts 275°
2026-05-04 11:36 -37.66757 144.84818 401 ft 3 kts 313°
2026-05-04 11:36 -37.66768 144.84828 395 ft 0 kts 339°
2026-05-04 11:38 -37.66758 144.84824 403 ft 6 kts 341°
2026-05-04 11:39 -37.66681 144.84803 404 ft 15 kts 345°
2026-05-04 11:39 -37.66632 144.84765 405 ft 4 kts 313°
2026-05-04 11:40 -37.66675 144.84444 399 ft 9 kts 260°
2026-05-04 11:41 -37.66679 144.84407 399 ft 0 kts 262°
2026-05-04 11:41 -37.66686 144.84352 399 ft 13 kts 261°
2026-05-04 11:41 -37.66700 144.84221 398 ft 14 kts 255°
2026-05-04 11:41 -37.66709 144.84192 398 ft 2 kts 242°
2026-05-04 11:42 -37.66709 144.84191 398 ft 0 kts 242°
2026-05-04 11:42 -37.66717 144.84176 398 ft 1 kts 234°
2026-05-04 11:42 -37.66728 144.84160 396 ft 0 kts 225°
2026-05-04 11:43 -37.66720 144.84171 393 ft 2 kts 225°
2026-05-04 11:44 -37.66709 144.84185 397 ft 2 kts 225°
2026-05-04 11:44 -37.66728 144.84167 394 ft 12 kts 211°
2026-05-04 11:44 -37.66801 144.84153 394 ft 12 kts 169°
2026-05-04 11:44 -37.66905 144.84204 391 ft 18 kts 159°
2026-05-04 11:45 -37.66990 144.84232 389 ft 0 kts 171°
2026-05-04 11:45 -37.66994 144.84233 389 ft 0 kts 171°
2026-05-04 11:45 -37.67010 144.84234 390 ft 6 kts 179°
2026-05-04 11:46 -37.67045 144.84225 389 ft 4 kts 199°
2026-05-04 11:46 -37.67077 144.84201 386 ft 2 kts 220°
2026-05-04 11:46 -37.67079 144.84199 386 ft 0 kts 221°
2026-05-04 11:47 -37.67081 144.84197 386 ft 0 kts 223°
2026-05-04 11:47 -37.67083 144.84194 386 ft 0 kts 224°
2026-05-04 11:47 -37.66775 144.84717 400 ft 0 kts 249°
2026-05-04 11:52 -37.66770 144.84734 399 ft 3 kts 249°
2026-05-04 11:52 -37.66763 144.84755 397 ft 3 kts 249°
2026-05-04 11:53 -37.66757 144.84776 401 ft 3 kts 249°
2026-05-04 11:53 -37.66751 144.84796 402 ft 3 kts 251°
2026-05-04 11:53 -37.66749 144.84819 401 ft 3 kts 289°
2026-05-04 11:53 -37.66759 144.84837 402 ft 3 kts 327°
2026-05-04 11:55 -37.66763 144.84841 401 ft 0 kts 340°
2026-05-04 11:57 -37.66717 144.84822 403 ft 15 kts 343°
2026-05-04 11:58 -37.66640 144.84739 405 ft 16 kts 275°
2026-05-04 11:58 -37.66654 144.84598 402 ft 17 kts 261°
2026-05-04 11:58 -37.66673 144.84441 399 ft 19 kts 262°
2026-05-04 11:58 -37.66693 144.84278 392 ft 17 kts 259°
2026-05-04 11:59 -37.66778 144.84193 393 ft 18 kts 175°
2026-05-04 11:59 -37.66909 144.84217 390 ft 20 kts 171°
2026-05-04 11:59 -37.67051 144.84243 389 ft 20 kts 172°
2026-05-04 11:59 -37.67197 144.84271 387 ft 24 kts 171°
2026-05-04 12:00 -37.67379 144.84303 383 ft 27 kts 172°
2026-05-04 12:00 -37.67570 144.84340 378 ft 28 kts 171°
2026-05-04 12:00 -37.67715 144.84366 372 ft 20 kts 172°
2026-05-04 12:00 -37.67830 144.84335 369 ft 14 kts 223°
2026-05-04 12:01 -37.67853 144.84266 365 ft 0 kts 262°
2026-05-04 12:03 -37.67854 144.84261 369 ft 0 kts 262°
2026-05-04 12:05 -37.67859 144.84221 365 ft 15 kts 261°
2026-05-04 12:05 -37.67879 144.84076 360 ft 19 kts 260°
2026-05-04 12:06 -37.67837 144.83965 364 ft 13 kts 346°
2026-05-04 12:06 -37.67809 144.83956 363 ft 0 kts 351°
2026-05-04 12:06 -37.67758 144.83946 365 ft 33 kts 351°
2026-05-04 12:07 -37.66980 144.83791 392 ft 139 kts 352°
2026-05-04 12:07 -37.65942 144.83618 1055 ft 151 kts 350°
2026-05-04 12:07 -37.65242 144.83513 1774 ft 150 kts 346°
2026-05-04 12:07 -37.64174 144.83347 2614 ft 164 kts 343°
2026-05-04 12:08 -37.62999 144.83133 3258 ft 179 kts 342°
2026-05-04 12:08 -37.62410 144.83042 3569 ft 188 kts 348°
2026-05-04 12:08 -37.61050 144.83361 4211 ft 215 kts 21°
2026-05-04 12:08 -37.59920 144.84705 4908 ft 233 kts 49°
2026-05-04 12:09 -37.59037 144.86466 5583 ft 244 kts 54°
2026-05-04 12:09 -37.58067 144.88329 6175 ft 261 kts 51°
2026-05-04 12:09 -37.56966 144.90220 6811 ft 275 kts 49°
2026-05-04 12:09 -37.55758 144.92161 7451 ft 289 kts 48°
2026-05-04 12:10 -37.54532 144.94227 8096 ft 297 kts 51°
2026-05-04 12:10 -37.53327 144.96365 8734 ft 301 kts 51°
2026-05-04 12:10 -37.52118 144.98528 9391 ft 303 kts 52°
2026-05-04 12:10 -37.50906 145.00713 10045 ft 306 kts 52°
2026-05-04 12:11 -37.49668 145.02950 10671 ft 318 kts 52°
2026-05-04 12:11 -37.48373 145.05295 11310 ft 331 kts 52°
2026-05-04 12:11 -37.47050 145.07692 11952 ft 344 kts 52°
2026-05-04 12:11 -37.45666 145.10205 12600 ft 353 kts 52°
2026-05-04 12:12 -37.44262 145.12755 13266 ft 356 kts 52°
2026-05-04 12:12 -37.42844 145.15328 13935 ft 359 kts 52°
2026-05-04 12:12 -37.41414 145.17922 14538 ft 362 kts 52°
2026-05-04 12:12 -37.39970 145.20537 15157 ft 365 kts 52°
2026-05-04 12:13 -37.38514 145.23172 15778 ft 368 kts 52°
2026-05-04 12:14 -37.27912 145.42295 20340 ft 394 kts 52°
2026-05-04 12:15 -37.26334 145.45131 21004 ft 397 kts 52°
2026-05-04 12:15 -37.24745 145.47985 21644 ft 400 kts 52°
2026-05-04 12:15 -37.23141 145.50863 22272 ft 404 kts 52°
2026-05-04 12:15 -37.21524 145.53763 22887 ft 407 kts 52°
2026-05-04 12:16 -37.19891 145.56688 23498 ft 410 kts 52°
2026-05-04 12:16 -37.18249 145.59628 23986 ft 413 kts 51°
2026-05-04 12:16 -37.16588 145.62597 24455 ft 417 kts 51°
2026-05-04 12:16 -37.14919 145.65579 24910 ft 420 kts 50°
2026-05-04 12:17 -37.13237 145.68581 25355 ft 423 kts 50°
2026-05-04 12:17 -37.11536 145.71615 25795 ft 426 kts 50°
2026-05-04 12:17 -37.09848 145.74623 26232 ft 429 kts 50°
2026-05-04 12:17 -37.08125 145.77691 26641 ft 432 kts 49°
2026-05-04 12:18 -37.06388 145.80778 27049 ft 435 kts 49°
2026-05-04 12:18 -37.04638 145.83889 27447 ft 438 kts 49°
2026-05-04 12:18 -37.02877 145.87016 27849 ft 441 kts 48°
2026-05-04 12:18 -37.01101 145.90165 28242 ft 444 kts 48°
2026-05-04 12:19 -36.99315 145.93330 28626 ft 446 kts 47°
2026-05-04 12:19 -36.97517 145.96512 28989 ft 449 kts 47°
2026-05-04 12:19 -36.95706 145.99716 29329 ft 452 kts 47°
2026-05-04 12:19 -36.93887 146.02929 29700 ft 454 kts 46°
2026-05-04 12:20 -36.92055 146.06163 30052 ft 457 kts 46°
2026-05-04 12:20 -36.90233 146.09377 30341 ft 460 kts 46°
2026-05-04 12:20 -36.88380 146.12644 30618 ft 462 kts 46°
2026-05-04 12:20 -36.86515 146.15925 30856 ft 465 kts 46°
2026-05-04 12:21 -36.84632 146.19236 31101 ft 468 kts 46°
2026-05-04 12:21 -36.82740 146.22561 31354 ft 471 kts 46°
2026-05-04 12:21 -36.80838 146.25900 31671 ft 471 kts 46°
2026-05-04 12:21 -36.78931 146.29246 32028 ft 471 kts 46°
2026-05-04 12:22 -36.77029 146.32580 32363 ft 472 kts 46°
2026-05-04 12:22 -36.75125 146.35913 32707 ft 472 kts 46°
2026-05-04 12:22 -36.73219 146.39245 33030 ft 472 kts 46°
2026-05-04 12:22 -36.71317 146.42568 33342 ft 471 kts 46°
2026-05-04 12:23 -36.69434 146.45854 33654 ft 472 kts 46°
2026-05-04 12:23 -36.67528 146.49176 33948 ft 471 kts 46°
2026-05-04 12:23 -36.65622 146.52497 34215 ft 472 kts 46°
2026-05-04 12:23 -36.63707 146.55828 34471 ft 471 kts 46°
2026-05-04 12:24 -36.61797 146.59148 34728 ft 471 kts 46°
2026-05-04 12:24 -36.59888 146.62462 34974 ft 471 kts 46°
2026-05-04 12:24 -36.56120 146.69004 35072 ft 461 kts 46°
2026-05-04 12:25 -36.52381 146.75476 35079 ft 457 kts 46°
2026-05-04 12:25 -36.48684 146.81855 35078 ft 457 kts 46°
2026-05-04 12:26 -36.44958 146.88275 35076 ft 457 kts 46°
2026-05-04 12:26 -36.41224 146.94701 35075 ft 457 kts 46°
2026-05-04 12:27 -36.37518 147.01065 35078 ft 458 kts 46°
2026-05-04 12:27 -36.33774 147.07482 35081 ft 458 kts 46°
2026-05-04 12:28 -36.30036 147.13878 35077 ft 458 kts 46°
2026-05-04 12:28 -36.26293 147.20272 35082 ft 458 kts 45°
2026-05-04 12:29 -36.22572 147.26614 35080 ft 458 kts 46°
2026-05-04 12:29 -36.18820 147.32999 35087 ft 457 kts 45°
2026-05-04 12:30 -36.15074 147.39361 35090 ft 457 kts 45°
2026-05-04 12:30 -36.11322 147.45721 35088 ft 457 kts 45°
2026-05-04 12:31 -36.07574 147.52064 35093 ft 457 kts 45°
2026-05-04 12:31 -36.03847 147.58360 35098 ft 456 kts 45°
2026-05-04 12:32 -35.98221 147.67841 35101 ft 456 kts 45°
2026-05-04 12:33 -35.94469 147.74150 35101 ft 456 kts 45°
2026-05-04 12:33 -35.90717 147.80445 35106 ft 455 kts 45°
2026-05-04 12:34 -35.86959 147.86739 35107 ft 455 kts 45°
2026-05-04 12:34 -35.83195 147.93033 35112 ft 455 kts 45°
2026-05-04 12:35 -35.79434 147.99310 35116 ft 455 kts 45°
2026-05-04 12:35 -35.75665 148.05590 35116 ft 455 kts 45°
2026-05-04 12:36 -35.71920 148.11818 35116 ft 456 kts 45°
2026-05-04 12:36 -35.68149 148.18077 35115 ft 456 kts 45°
2026-05-04 12:37 -35.64362 148.24351 35115 ft 456 kts 44°
2026-05-04 12:37 -35.60585 148.30600 35115 ft 455 kts 44°
2026-05-04 12:38 -35.56805 148.36841 35113 ft 456 kts 44°
2026-05-04 12:38 -35.53015 148.43086 35121 ft 456 kts 44°
2026-05-04 12:39 -35.49224 148.49324 35117 ft 456 kts 44°
2026-05-04 12:39 -35.45426 148.55563 35113 ft 455 kts 44°
2026-05-04 12:40 -35.41656 148.61743 35116 ft 455 kts 44°
2026-05-04 12:40 -35.37864 148.67949 35122 ft 455 kts 44°
2026-05-04 12:41 -35.34061 148.74160 35116 ft 454 kts 44°
2026-05-04 12:41 -35.30260 148.80355 35118 ft 454 kts 44°
2026-05-04 12:42 -35.26457 148.86546 35109 ft 455 kts 44°
2026-05-04 12:42 -35.22672 148.92698 35108 ft 454 kts 44°
2026-05-04 12:43 -35.18863 148.98876 35107 ft 454 kts 44°
2026-05-04 12:43 -35.15052 149.05046 35107 ft 454 kts 43°
2026-05-04 12:44 -35.11237 149.11212 35106 ft 454 kts 43°
2026-05-04 12:44 -35.07449 149.17324 35120 ft 455 kts 43°
2026-05-04 12:44 -35.05542 149.20398 34808 ft 454 kts 43°
2026-05-04 12:45 -35.03631 149.23473 34252 ft 455 kts 43°